NIGCOMSAT 1R

Last updated on Sun Jan 18 2026 00:02:46 GMT+0000 (Coordinated Universal Time)

1 38014U 11077A 26017.59232964 .00000000 00000+0 00000+0 0 9996 2 38014 0.0130 237.7498 0004405 77.3247 57.6731 1.00273212 51446
UTC large
Height (km)
Speed (km/s)
/
Latitude / Longitude
Inclination (degrees)
Orbital Period (minutes)
Azimuth
Elevation
Range (km)
Doppler Factor

Next 0 passes for location: London (51.5072 / 0.1276)

Sorry there are no passes over London.